Find Starlink 34079

NORAD ID: 64038 Int'l Des: 2025-102 Owner: SPXS Country: US Constellation: starlink operational
LEOCIRCULAR

Aktuelle Ansicht

3D-Globus wird geladen...

Über Starlink 34079

Beschreibung wird geladen...

Nächste Überflüge

Passes for default location (London). Set your location on the main map for personalized predictions.

Höhenverlauf

Loading altitude history...

Zweizeiliger Elementsatz

1 64038U 25102S 26146.11587860 .00002283 00000-0 19908-3 0 9991
2 64038 69.9996 279.0774 0003458 262.1822 97.8944 14.98331734 57657
Epoch: 26. Mai 2026 • Age: 13 hours

Aktueller Status

Höhe 578.6 km
Geschwindigkeit 7.57 km/s
Subsatellitenpunkt 40.33°N, 47.58°W
Startdatum 16. Mai 2025
Alter 1 years
Typ internet

Technische Details

Klassifizierung Payload
Masse 575.00 kg
Trockenmasse 530.00 kg
Gesamtmasse 575.00 kg
Länge 0.30 m
Durchmesser 4.10 m
Spannweite 29.00 m
Form Box + pan
Hersteller SPXS
Bus-Typ Starlink V2MO
Phasenstatus In Orbit
Besitzer/Staat SPXS/US

Most Searched